FREGAT R/B, 40316

Orbit data source: Space-Track

FREGAT R/B, 40316 is space debris in MEO originally from a launch on Sun, 30 Nov 2014 UTC launched from the Plesetsk Missile And Space Complex (PKMTR). Debris objects in space refer to the collection of defunct objects orbiting the Earth. Examples of debris include non-operational satellites, rocket bodies, and fragments generated from explosions, collisions, or faulty payload assembly.

Loading next visibility...
Identifier
40316, 2014-075B
Orbit
MEO
Last TLE update
2 days ago
Origin
Manufacturer
Lavochkin
Mission
Spacecraft
Bus & Motor
FREGAT, Unknown motor
Mass
1,000 kg wet, 1,000 kg dry
Launch date (UTC)
2014-11-30 (11 years ago)
Launch vehicle
Unknown
Launch site
Plesetsk Missile And Space Complex (PKMTR)
Object type
Payload
Rocket body
Debris
Shape & HBR
Cyl, 2.66 m
Radar Cross Section
6.468 m², Large (>1 m²)

Expand to show TLE details & history

TLE from 2 days ago
0 FREGAT R/B
1 40316U 14075B   25180.17288847  .00000042  00000-0  00000-0 0  9998
2 40316  63.5577 208.6445 0044708 136.4081 224.0020  2.08635689 80605
Epoch: 2025-06-29T04:08Z
TLE epoch observation values (Epoch: 2025-06-29T04:08:57.563Z)
Latitude
-0.00001°
Longitude
-131.0892°
Altitude
19,576.612 km
Speed
3.913 km/s
True Right ascension
13h 54m 36s
True Declination
0° 00' 00"
Sunlit
Object was in daylight at epoch
Visualization orbit readout
Latitude
-34.56249°
Longitude
68.85698°
Altitude
19,489.037 km
Speed
3.927 km/s
Apparent Right ascension
04h 04m 28s
Apparent Declination
-39° 51' 07"
Sunlit
Object is in daylight
Visualization observer readout
Local Sidereal Time
20:46:36
Azimuth
114.335° SE
Elevation
-37.4°
Doppler factor
1
Orbital elements
Apogee altitude
19,607.971 km
Perigee altitude
19,376.648 km
Semi-major axis
25,870.446 km
Eccentricity
0.00447
Inclination
63.5577°
RAAN
208.6445°
Arg. of periapsis
136.4081°
True anomaly
Unknown
Mean anomaly
224.002°
Eccentric anomaly
Unknown
Mean motion
0.5216 °/min
Orbital period
690.18 mins
BSTAR
0
Loading maneuver chart data...
Loading SW <> Apogee altitude chart data...
Loading historical data...
Loading historical data...
Loading historical data...
Loading historical data...
Loading historical data...
Loading historical data...
Loading historical data...
Other satellites on launch #75 in the year 2014 (2014-11-30 UTC)

FREGAT R/B Visibility forecast

Observer location: undefined°, undefined°

Span
Click to sort rows by Start time (UTC) header in descending order
Start Az.
Max El. time (UTC)
Max El. Az.
Max El.
End time (UTC)
End Az.
114 mins2025-07-01 16:39:22.661Z334.226° NNW2025-07-01 17:35:22.661Z309.121° NW17.498°2025-07-01 18:33:22.661Z281.069° WNW
279 mins2025-07-02 00:19:22.661Z163.656° S2025-07-02 02:34:22.661Z90.948° ESE43.506°2025-07-02 04:58:22.661Z42.568° NE
|